Sabine Lake Weather Center

Moon Phase Calendar



Sabine Lake Water Level
Online Cameras

 


      

Current Conditions in Lakeview
10/27/2021 12:57:13 AM

76°F
Feels Like 78
Clouds
Humidity
88%
Pressure
29.8"
Wind
9.9 mph (SSE)
Dew Point
72°F
UV Index
0/10 (Low)
Visibility
6 mi

Hourly Forecast

Date & Time Wed, Oct 27
12:00 AM
Wed, Oct 27
1:00 AM
Wed, Oct 27
2:00 AM
Wed, Oct 27
3:00 AM
Wed, Oct 27
4:00 AM
Wed, Oct 27
5:00 AM
Wed, Oct 27
6:00 AM
Wed, Oct 27
7:00 AM
Wed, Oct 27
8:00 AM
Wed, Oct 27
9:00 AM
Wed, Oct 27
10:00 AM
Wed, Oct 27
11:00 AM
Wed, Oct 27
12:00 PM
Wed, Oct 27
1:00 PM
Wed, Oct 27
2:00 PM
Wed, Oct 27
3:00 PM
Wed, Oct 27
4:00 PM
Wed, Oct 27
5:00 PM
Wed, Oct 27
6:00 PM
Wed, Oct 27
7:00 PM
Wed, Oct 27
8:00 PM
Wed, Oct 27
9:00 PM
Wed, Oct 27
10:00 PM
Wed, Oct 27
11:00 PM
Thu, Oct 28
12:00 AM
Thu, Oct 28
1:00 AM
Thu, Oct 28
2:00 AM
Thu, Oct 28
3:00 AM
Thu, Oct 28
4:00 AM
Thu, Oct 28
5:00 AM
Thu, Oct 28
6:00 AM
Thu, Oct 28
7:00 AM
Thu, Oct 28
8:00 AM
Thu, Oct 28
9:00 AM
Thu, Oct 28
10:00 AM
Thu, Oct 28
11:00 AM
Thu, Oct 28
12:00 PM
Thu, Oct 28
1:00 PM
Thu, Oct 28
2:00 PM
Thu, Oct 28
3:00 PM
Thu, Oct 28
4:00 PM
Thu, Oct 28
5:00 PM
Thu, Oct 28
6:00 PM
Thu, Oct 28
7:00 PM
Thu, Oct 28
8:00 PM
Thu, Oct 28
9:00 PM
Thu, Oct 28
10:00 PM
Thu, Oct 28
11:00 PM
Condition
Clouds

Clouds

Clouds

Clouds

Rain

Clouds

Rain

Rain

Rain

Rain

Rain

Rain

Rain

Rain

Rain

Rain

Rain

Clouds

Clouds

Clouds

Clear

Clear

Clear

Clear

Clear

Clear

Clear

Clear

Clear

Clear

Clear

Clear

Clear

Clear

Clear

Clear

Clear

Clear

Clear

Clear

Clear

Clear

Clear

Clear

Clear

Clear

Clear

Clear
Temperature 76°F76°F76°F76°F76°F77°F77°F77°F77°F78°F78°F78°F81°F80°F77°F80°F81°F77°F73°F69°F67°F66°F66°F66°F65°F65°F65°F64°F63°F63°F62°F62°F61°F62°F65°F67°F69°F71°F72°F72°F72°F70°F68°F66°F64°F64°F63°F61°F
Feels Like 78°F78°F78°F78°F78°F78°F78°F78°F78°F79°F80°F80°F86°F85°F79°F80°F84°F77°F72°F68°F66°F65°F64°F64°F64°F64°F64°F63°F62°F61°F61°F60°F59°F60°F63°F66°F68°F69°F70°F71°F71°F69°F66°F64°F62°F62°F61°F59°F
Cloudiness 95%94%88%85%86%84%85%87%91%92%95%96%89%78%98%81%62%47%38%31%0%0%0%0%0%0%0%0%0%0%0%0%0%0%0%0%0%0%0%0%0%0%0%0%0%0%0%0%
Visibility 6 mi6 mi6 mi6 mi6 mi6 mi6 mi6 mi6 mi6 mi5 mi6 mi3 mi3 mi6 mi6 mi6 mi6 mi6 mi6 mi6 mi6 mi6 mi6 mi6 mi6 mi6 mi6 mi6 mi6 mi6 mi6 mi6 mi6 mi6 mi6 mi6 mi6 mi6 mi6 mi6 mi6 mi6 mi6 mi6 mi6 mi6 mi6 mi
Precipitation 12%8%12%14%28%49%58%75%100%100%100%100%100%100%100%99%97%73%72%88%0%0%0%0%0%0%0%0%0%0%0%0%0%0%0%0%0%0%0%0%0%0%0%0%0%0%0%0%
Humidity 87%87%88%88%87%88%88%88%89%85%83%84%81%83%89%79%65%51%49%47%48%51%55%56%56%57%54%52%52%50%49%49%51%50%45%41%39%38%37%37%37%37%37%37%38%37%38%41%
Dew Point 72°F72°F72°F72°F72°F73°F73°F73°F73°F73°F73°F73°F74°F74°F73°F73°F68°F58°F53°F48°F47°F48°F49°F50°F49°F49°F48°F46°F45°F44°F43°F42°F43°F43°F43°F43°F43°F44°F44°F44°F44°F42°F40°F39°F38°F37°F36°F37°F
Pressure 29.77"29.77"29.77"29.77"29.74"29.71"29.68"29.68"29.65"29.68"29.65"29.65"29.62"29.59"29.56"29.53"29.53"29.56"29.59"29.62"29.65"29.65"29.68"29.68"29.68"29.65"29.65"29.68"29.68"29.68"29.71"29.71"29.74"29.77"29.77"29.77"29.77"29.77"29.74"29.74"29.74"29.74"29.77"29.8"29.83"29.83"29.85"29.85"
Wind Speed 10.8 mph10.6 mph10 mph9.6 mph10.7 mph11.9 mph13.3 mph14.9 mph16.2 mph18 mph21 mph22.3 mph23.9 mph24.2 mph19.9 mph15.4 mph16.2 mph16.7 mph16.5 mph13.1 mph11.8 mph11.5 mph11.1 mph11.8 mph12 mph13.7 mph14.6 mph15 mph14.5 mph16.1 mph16.2 mph14.6 mph15.7 mph16.5 mph18.4 mph19.9 mph20.7 mph21 mph20.6 mph20.4 mph20.8 mph21.4 mph21.1 mph16.8 mph14.9 mph15.6 mph14.6 mph12.4 mph
Wind
Direction
160°
SSE
158°
SSE
156°
SSE
152°
SSE
153°
SSE
155°
SSE
163°
SSE
168°
SSE
174°
S
177°
S
187°
S
196°
SSW
204°
SSW
214°
SW
225°
SW
247°
WSW
274°
W
272°
W
275°
W
276°
W
272°
W
262°
W
265°
W
266°
W
265°
W
263°
W
266°
W
271°
W
275°
W
278°
W
275°
W
271°
W
269°
W
276°
W
283°
WNW
289°
WNW
292°
WNW
294°
WNW
291°
WNW
293°
WNW
297°
WNW
299°
WNW
303°
WNW
300°
WNW
296°
WNW
302°
WNW
305°
NW
298°
WNW

Daily Forecast

Date High Low Precip. Humidity
Today
Oct 27

Rain
81 °F
66 °F
100%
81%
Thursday
Oct 28

Clear
72 °F
61 °F
0%
39%
Friday
Oct 29

Clear
70 °F
55 °F
0%
36%
Saturday
Oct 30

Clear
72 °F
51 °F
0%
43%
Sunday
Oct 31

Clear
76 °F
57 °F
0%
40%
Monday
Nov 1

Clouds
77 °F
63 °F
0%
57%
Tuesday
Nov 2

Clouds
78 °F
65 °F
0%
57%
Wednesday
Nov 3

Rain
76 °F
66 °F
100%
63%
Thursday
Nov 4

Rain
63 °F
50 °F
100%
82%
Friday
Nov 5

Clear
58 °F
43 °F
0%
43%
Saturday
Nov 6

Clear
60 °F
43 °F
0%
42%
Sunday
Nov 7

Rain
70 °F
52 °F
26%
63%
Monday
Nov 8

Rain
78 °F
69 °F
100%
75%
Tuesday
Nov 9

Rain
79 °F
60 °F
100%
71%
Wednesday
Nov 10

Clear
63 °F
52 °F
0%
31%
Thursday
Nov 11

Clear
55 °F
45 °F
0%
31%

Temperature 8-14 Day Outlook



Precipitation 8-14 Day Outlook




Quick Links
Sabine Lake News
Sabine Lake Photos
Sabine Lake Videos




About Us
Contact Us
Site Map
Search Site
Advertise With Us
   
Sabine.USLakes.info
THE SABINE LAKE WEBSITE

Copyright 2021, Lakes Online
Privacy    |    Legal